www.pogodaiklimat.ru

Погода и климат >> Архив погоды >> Россия >> Красноярский край >> Северо-Енисейский


АРХИВ ПОГОДЫ в Северо-Енисейском

Время (UTC), дата Ветер
(напр.,м/с)
 
Видим.   Явления Облачность Т
(С)
Тd
(С)
f
(%)
Тe
(С)
Тes
(С)
Комфортность P
(гПа)
Po
(гПа)
Тmin
(С)
Tmax
(С)
R
(мм)
R24
(мм)
S
(см)
15 15.09 штиль 0 н/о 3/3 600 м
[Cb calv]
-0.8 -2.7 87 -2 -2 1015.6 952.9
18 15.09 штиль 0 н/о ясно -3.9 -4.4 96 -5 -5 1016.7 953.3
21 15.09 штиль 0 н/о ясно -4.7 -5.3 96 -6 -6 1018.6 954.8
00 16.09 штиль 0 50 км 6/0
[Ci fib]
-4.8 -5.4 96 -6 -6 1019.8 955.9 -5.0 6
03 16.09 ЮЗ 1 50 км 9/0
[Ac trans Ci fib]
+2.4 -1.9 73 +1 +3 1019.0 956.8
06 16.09 ЮЗ 1 50 км 10/0
[As op]
+4.5 -0.9 68 +3 +5 1018.5 956.8
09 16.09 ЮЗ 3 10 км слаб. снег {дождь} 10/4 300 м
[Frnb As op]
+1.9 +0.3 89 -2 -2 1019.3 957.0
12 16.09 ЮЗ 2 50 км {снег, дождь} 10/6 300 м
[Cb calv As op]
+1.5 +0.4 92 -2 -2 1018.0 955.7 +4.6 2
15 16.09 ЮЗ 2 н/о 10/10 300 м
[Cb calv]
+2.3 +1.5 94 -1 -1 1017.8 955.7
18 16.09 ЮЗ 3 н/о гроза, ливневой дождь 10/10 200 м
[Cb cap]
+3.7 +3.5 99 -0 -0 1017.3 955.5
21 16.09 ЮЗ 2 н/о слаб. ливневой дождь {гроза} туман ?/? +4.7 +4.5 99 +2 +2 1017.1 955.6
00 17.09 Ю 2 500 м туман {гроза, ливн. осадки} ?/? +5.7 +5.5 99 +3 +3 1016.3 955.1 +1.3 4 0
03 17.09 ЮЗ 2 500 м туман ?/? +7.9 +7.5 97 +6 +6 1016.1 955.4
06 17.09 ЮЗ 3 20 км {туман} 10/10 200 м
[Cb calv]
+11.6 +9.6 88 +10 +10 1013.6 953.8
09 17.09 ЮЗ 2 20 км 9/9 200 м
[Cb calv]
+13.0 +10.5 85 +12 +12 1012.9 953.5
12 17.09 ЮЗ 2 50 км 3/3 300 м
[Cb calv]
+13.2 +9.5 78 +13 +13 1012.4 953.0 +14.2
15 17.09 ЮЗ 2 н/о 3/3 600 м
[Cb calv]
+11.2 +8.8 85 +10 +10 1012.1 952.4
18 17.09 Ю 2 н/о слаб. ливневой дождь 10/10 300 м
[Cb calv]
+10.3 +9.1 92 +9 +9 1011.6 951.6
21 17.09 ЮЗ 1 н/о {ливн. осадки} 3/3 300 м
[Cb calv]
+9.4 +8.4 93 +9 +9 1008.9 948.9
00 18.09 ЮЗ 2 50 км {ливн. осадки} 9/8 300 м
[Cb calv Ac trans]
+9.8 +8.4 91 +8 +8 1007.6 947.8 +8.8 3
03 18.09 З 7
{11}
10 км слаб. ливневой дождь 10/10 300 м
[Cb calv]
+10.0 +9.0 93 +6 +6 1006.6 947.0
06 18.09 З 5
{10}
50 км {ливн. осадки} 9/8 300 м
[Cb calv Ac trans]
+10.8 +8.4 85 +8 +8 1009.3 949.6
09 18.09 З 3 50 км 10/10 300 м
[Cb calv]
+10.0 +7.3 83 +8 +8 1011.0 951.0
12 18.09 ЮЗ 3 50 км 9/6 300 м
[Cb calv Ac trans]
+9.4 +6.8 84 +7 +7 1011.8 951.6 +10.9 1
15 18.09 З 3 н/о {ливн. осадки} 5/5 300 м
[Cb calv]
+7.7 +6.8 94 +5 +5 1013.2 952.5
18 18.09 Ю 1 н/о {ливн. осадки} 9/3 300 м
[Cb calv Ac trans]
+6.7 +6.0 95 +6 +6 1014.9 953.9
21 18.09 штиль 0 н/о дымка 5/0
[Ac trans]
+3.7 +3.2 97 +2 +2 1015.3 953.7
00 19.09 ЮЗ 1 4000 м в посл. час ливневой дождь 10/10 300 м
[Cb calv]
+6.4 +5.7 95 +5 +5 1015.0 954.0 +3.6 2
03 19.09 Ю 2 50 км 9/3 300 м
[Cb calv Ac trans]
+8.9 +7.9 93 +7 +8 1014.3 953.9
06 19.09 Ю 3 20 км слаб. ливневой дождь 10/8 300 м
[Cb calv As trans]
+11.3 +8.3 82 +9 +10 1012.5 952.7
09 19.09 Ю 2 20 км слаб. ливневой дождь 10/8 300 м
[Cb calv As trans]
+10.0 +8.8 92 +8 +9 1010.2 950.3
12 19.09 ЮЗ 4 4000 м слаб. ливневой дождь 10/10 300 м
[Cb calv]
+10.3 +8.9 91 +8 +8 1008.3 948.5 +11.5 2
15 19.09 З 5
{13}
н/о {ливн. осадки} 10/10 300 м
[Cb calv]
+11.7 +10.1 90 +9 +9 1007.1 947.7
18 19.09 З 5
{10}
н/о {ливн. осадки} 10/10 300 м
[Cb calv]
+11.6 +9.8 89 +9 +9 1007.8 948.4
21 19.09 З 4
{10}
н/о 9/4 300 м
[Cb calv Ac trans]
+9.8 +7.9 88 +7 +7 1008.7 948.8
00 20.09 ЮЗ 2 50 км 10/10 300 м
[Cb calv]
+10.4 +8.1 86 +9 +9 1008.0 948.3 +9.2 1
03 20.09 Ю 2 50 км 8/3 300 м
[Cb calv Ac trans Ci sp]
+14.0 +8.7 70 +14 +15 1005.3 946.5
06 20.09 Ю 4 50 км 5/0
[Ac trans Ci sp]
+19.2 +9.4 53 +20 +23 1000.6 943.1
09 20.09 Ю 6
{14}
50 км 8/3 600 м
[Cb calv Ac trans Ci sp]
+20.0 +7.1 43 +21 +21 комфорт 996.7 939.5
12 20.09 Ю 5
{13}
50 км 9/4 600 м
[Cb cap Ac trans Ci fib]
+18.5 +7.8 50 +18 +18 994.8 937.5 +20.8
15 20.09 ЮЗ 2
{14}
н/о {ливн. осадки} 4/4 600 м
[Cb calv]
+12.8 +10.5 86 +12 +12 996.8 938.4
18 20.09 З 6
{13}
н/о {ливн. осадки} 3/3 600 м
[Cb calv]
+9.1 +3.3 67 +6 +6 1001.6 942.0
21 20.09 З 5
{13}
н/о 5/5 300 м
[Cb calv]
+7.5 +1.9 68 +4 +4 1005.0 944.8
00 21.09 З 5
{11}
50 км 10/10 300 м
[Cb calv]
+7.2 +3.2 76 +3 +3 1006.3 946.0 +6.8 5
03 21.09 З 5
{11}
50 км {ливн. осадки} 10/10 300 м
[Cb calv]
+6.6 +3.5 81 +2 +2 1007.8 947.3
06 21.09 З 8
{16}
50 км {ливн. осадки} 10/10 300 м
[Cb calv]
+7.5 +3.0 73 +3 +3 1010.1 949.6
09 21.09 З 9
{16}
50 км 9/8 300 м
[Cb calv Ac trans]
+8.5 +0.8 58 +4 +4 1011.3 951.0
12 21.09 З 4
{12}
50 км 10/10 300 м
[Cb calv]
+5.8 +2.6 80 +2 +2 1014.5 953.4 +8.5 0.9
15 21.09 З 3 н/о 10/10 300 м
[Cb calv]
+3.9 +2.1 88 0 0 1016.9 955.2
18 21.09 З 3 н/о {ливн. осадки} 10/10 300 м
[Cb calv]
+4.0 +2.2 88 0 0 1018.1 956.3
21 21.09 ЮЗ 2 н/о 10/10 300 м
[Cb calv]
+3.1 +1.0 86 0 0 1020.1 958.1
00 22.09 ЮЗ 2 50 км 9/8 300 м
[Cb calv Ac trans]
+3.0 +0.9 86 -0 -0 1021.1 958.9 +2.4 0.0
03 22.09 З 5 50 км 10/10 300 м
[Cb calv]
+4.0 +0.9 80 -1 -1 1022.8 960.7
06 22.09 СЗ 2 50 км {ливн. осадки} 10/10 300 м
[Cb calv]
+5.7 -0.3 65 +4 +4 1023.3 961.6
09 22.09 З 3 50 км 8/6 300 м
[Cb calv Ac trans]
+6.8 -2.1 53 +4 +5 1023.1 961.6
12 22.09 Ю 1 50 км 8/0
[As trans Ci fib]
+4.5 -1.9 63 +4 +4 1023.0 961.0 +7.1 0.0

 

Местоположение метеостанции Северо-Енисейский (Красноярский край, Россия): широта 60.38 долгота 93.03 высота над уровнем моря 511 м.

В архиве по умолчанию представлена погода в Северо-Енисейском за последнюю неделю. Архивные данные за месяц целиком и за предыдущие месяцы, начиная с января 2011 года, Вы можете получить, выбрав интересующий диапазон дат из раскрывающегося списка и нажав кнопку "Ввод!".


*Определитесь, кто Вы:
робот инопланетянин человек

Внимание! Время в таблицах - всемирное. Для получения местного времени необходимо прибавить поправку, которая равна 7 ч.

Смотрите также архив погоды в соседних городах и на ближайших метеорологических станциях:

Погода в Вельмо (Красноярский край, Россия) (74 км)
Погода в Назимово (Красноярский край, Россия) (149 км)
Погода в Ярцево (Красноярский край, Россия) (155 км)
Погода в Ворогово (Красноярский край, Россия) (199 км)
Погода в Бору (Красноярский край, Россия) (212 км)
Погода в Енисейске (Красноярский край, Россия) (220 км)
Погода в Кузьмовке (Эвенкия, Россия) (221 км)
Погода в Байките (Эвенкия, Россия) (230 км)
Погода в Александровском Шлюзе (Красноярский край, Россия) (234 км)
Погода в Усть-Камо (Эвенкия, Россия) (248 км)

Пояснения к столбцам:

Ветер - указаны скорость ветра в м/с - средняя за 10 мин, порывы в срок и между сроками (в фигурных скобках) и направление, откуда дует ветер: С - северный, СВ - северо-восточный, В - восточный, ЮВ - юго-восточный, Ю - южный, ЮЗ - юго-западный, З - западный, СЗ - северо-западный.
Видимость - горизонтальная дальность видимости в метрах или километрах. При видимости от 1 до 10 км при отсутствии осадков обычно наблюдается дымка, при ухудшении видимости до 1 км и менее - туман. В сухую погоду видимость может ухудшаться дымом, пылью или мглою.
Явления - указаны атмосферные явления, наблюдавшиеся в срок или в последний час перед сроком; фигурными скобками обозначены явления, наблюдавшиеся между сроками (за 1-3 часа до срока); квадратными скобками обозначены град или гололедные отложения с указанием их диаметра в мм.
Облачность - указаны через наклонную черту общая и нижняя облачность в баллах и высота нижней границы облаков в метрах; квадратными скобками обозначены формы облаков: Ci - перистые, Cs - перисто-слоистые, Cc - перисто-кучевые, Ac - высококучевые, As - высокослоистые, Sc - слоисто-кучевые, Ns - слоисто-дождевые, Cu - кучевые, Cb - кучево-дождевые. Подробнее классификацию облаков см. в Атласе облаков (PDF).
T - Температура воздуха - температура, измеренная на высоте 2 м над землей.
Td - Температура точки росы - температура, при понижении до которой содержащийся в воздухе водяной пар достигнет насыщения.
f - Относительная влажность воздуха - влажноcть воздуха, измеренная на высоте 2 м над землей.
Te - Эффективная температура - температура, которую ощущает одетый по сезону человек в тени. Характеристика душности погоды. При расчете учитывается влияние влажности воздуха и скорости ветра на теплоощущения человека.
Tes - Эффективная температура на солнце - температура, которую ощущает человек, с поправкой на солнечный нагрев. Характеристика знойности погоды. Зависит от высоты солнца над горизонтом, облачности и скорости ветра. Ночью, в пасмурную погоду, а также при ветре 12 м/с и более поправка равна нулю.
P - Атмосферное давление - приведенное к уровню моря атмосферное давление.
Po - Атмосферное давление - измеренное на уровне метеостанции атмосферное давление.
Tmin - Минимальная температура - минимум температуры воздуха на высоте 2 м над землей.
Tmax - Максимальная температура - максимум температуры воздуха на высоте 2 м над землей.
R - Количество осадков - Количество выпавших осадков за период времени, мм. При наведении курсора мыши на число - период времени, за который выпало указанное количество осадков.
R24 - Количество осадков - Количество выпавших осадков за 24 часа, мм.
S - Снежный покров - Высота снежного покрова, см. При наведении курсора мыши на число - состояние снежного покрова и степень покрытия местности в баллах.